[[{"header":{"parameterUnit":"m.s-1","parameterCategory":1,"la1":30.2991,"la2":30.254,"lo1":-89.0895,"lo2":-89.0444,"dy":0.0017,"dx":0.0017,"nx":28,"ny":28,"refTime":"2024-06-29T03:00:00:Z","depth":0,"parameterNumber":2,"parameterNumberName":"U-component_of_WINDS"},"data":[0,0,0,0,0,0,0,0,0,0,0,0,0,0,0,0,0,0,0,0,0,0,0,0,0,0,0,0,0,0,0,0,0,0,0,0,0,0,0,0,0,0,0,0,0,0,0,0,0,0,0,0,0,0,0,0,0,0,-1.7313,-1.7314,0,-1.7419,-1.7421,-1.7422,-1.7473,-1.7473,-1.7473,-1.7473,-1.7579,-1.7582,-1.7585,0,0,0,0,0,0,0,0,0,0,0,0,0,-1.715,-1.7153,-1.7313,-1.7314,-1.7315,-1.7419,-1.7421,-1.7422,-1.7473,-1.7473,-1.7473,-1.7473,-1.7578,-1.7582,-1.7585,0,0,0,0,0,0,0,0,0,0,0,0,0,-1.7235,-1.7154,-1.7312,-1.7354,-1.7358,-1.7419,-1.7421,-1.7422,-1.7473,-1.7473,-1.7473,-1.7473,-1.7577,-1.7581,-1.7585,-1.7612,0,0,-1.7598,-1.76,0,0,0,0,0,0,0,0,-1.723,-1.7241,-1.7346,-1.7351,-1.7356,-1.7433,-1.7402,-1.7486,-1.7473,-1.743,-1.7473,-1.7473,-1.753,-1.7538,-1.7558,-1.7617,-1.7622,-1.7599,-1.7601,-1.7603,-1.7604,0,0,0,0,0,0,0,-1.7224,-1.7237,-1.7355,-1.7348,-1.7354,-1.7366,-1.7378,-1.7418,-1.7479,-1.7433,-1.7437,-1.745,-1.7533,-1.7554,-1.7561,-1.7623,-1.7599,-1.7602,-1.7605,-1.7607,-1.7708,-1.7708,0,0,0,0,0,0,-1.7212,-1.7231,-1.7351,-1.7358,-1.7292,-1.7368,-1.7382,-1.7408,-1.7478,-1.7489,-1.7449,-1.7452,-1.7547,-1.7556,-1.7565,-1.7601,-1.7603,-1.7607,-1.761,-1.7708,-1.7708,-1.7709,0,0,0,0,0,0,-1.7208,-1.7222,-1.7347,-1.7296,-1.7313,-1.7371,-1.7401,-1.7411,-1.7432,-1.7491,-1.7501,-1.746,-1.7547,-1.7559,-1.76,-1.7605,-1.7609,-1.7613,-1.7708,-1.7708,-1.7708,-1.7673,0,0,0,0,0,0,-1.7203,-1.7221,-1.7232,-1.7296,-1.7315,-1.7381,-1.7401,-1.7413,-1.7439,-1.7443,-1.7504,-1.7513,-1.7548,-1.7594,-1.7604,-1.7611,-1.7616,-1.7708,-1.7708,-1.7708,-1.7674,-1.7672,-1.767,0,0,0,0,0,-1.7197,-1.7217,-1.7233,-1.7247,-1.7331,-1.7382,-1.7393,-1.7433,-1.744,-1.7451,-1.7489,-1.7511,-1.7603,-1.7597,-1.761,-1.7618,-1.7708,-1.7708,-1.7708,-1.7675,-1.7672,-1.767,0,0,0,0,0,0,-1.7152,-1.7227,-1.7244,-1.7286,-1.7327,-1.739,-1.7407,-1.7429,-1.7469,-1.7471,-1.7518,-1.7532,-1.7568,-1.7597,-1.759,-1.7647,-1.7657,-1.766,-1.7627,-1.7626,-1.7624,-1.7616,-1.762,0,0,0,0,0,-1.7147,-1.7183,-1.7246,-1.7276,-1.7296,-1.7347,-1.7371,-1.7399,-1.7443,-1.746,-1.7501,-1.7542,-1.758,-1.7604,-1.7643,-1.7678,-1.7691,-1.769,-1.7688,-1.7686,-1.7688,-1.7708,-1.7708,-1.771,-1.771,-1.771,0,0,-1.7137,-1.7182,-1.7202,-1.7268,-1.7304,-1.7338,-1.7362,-1.7398,-1.7424,-1.7466,-1.7507,-1.7538,-1.7587,-1.7625,-1.7644,-1.7651,-1.7691,-1.7686,-1.7685,-1.7688,-1.7709,-1.7709,-1.7708,-1.771,-1.771,-1.771,0,0,-1.7137,-1.7175,-1.7204,-1.7239,-1.7292,-1.7326,-1.7333,-1.7393,-1.7416,-1.7458,-1.749,-1.7521,-1.7585,-1.7619,-1.7645,-1.7656,-1.7678,-1.7666,-1.7657,-1.7676,-1.7676,-1.7676,-1.768,-1.7681,-1.7668,-1.7668,-1.7668,0,-1.7117,-1.7173,-1.7216,-1.7251,-1.7278,-1.7318,-1.7348,-1.7379,-1.7441,-1.7459,-1.7466,-1.7548,-1.7583,-1.763,-1.7632,-1.7652,-1.766,-1.766,-1.7673,-1.7673,-1.7674,-1.7678,-1.768,-1.7666,-1.7667,-1.7667,-1.7667,0,-1.7146,-1.7183,-1.72,-1.7261,-1.7291,-1.7322,-1.7369,-1.7394,-1.7418,-1.7451,-1.7493,-1.7537,-1.7585,-1.7598,-1.7622,-1.7648,-1.765,-1.7664,-1.7675,-1.7672,-1.7676,-1.7678,-1.7664,-1.7665,-1.7665,-1.7665,0,0,-1.7121,-1.7205,-1.721,-1.7238,-1.7299,-1.7329,-1.7361,-1.7409,-1.7429,-1.747,-1.7499,-1.7552,-1.7565,-1.7594,-1.7622,-1.7639,-1.7644,-1.7651,-1.7653,-1.7648,-1.7675,-1.7664,-1.7666,-1.7659,-1.766,-1.766,-1.7671,0,-1.713,-1.7192,-1.7231,-1.7277,-1.7312,-1.7349,-1.7378,-1.7417,-1.7449,-1.7482,-1.7516,-1.7553,-1.7567,-1.7585,-1.7603,-1.764,-1.765,-1.7639,-1.7685,-1.7686,-1.7672,-1.7668,-1.7657,-1.7666,-1.7673,-1.7673,-1.7674,0,-1.7148,-1.719,-1.7239,-1.7296,-1.7312,-1.7337,-1.7383,-1.7415,-1.746,-1.7481,-1.7513,-1.7542,-1.7577,-1.7584,-1.7632,-1.7624,-1.7645,-1.7665,-1.7666,-1.7673,-1.768,-1.7674,-1.7669,-1.7671,-1.7677,-1.7677,-1.7676,0,-1.7126,-1.7193,-1.7231,-1.7254,-1.7321,-1.7338,-1.7366,-1.7412,-1.7438,-1.7478,-1.7495,-1.7538,-1.7561,-1.7593,-1.7632,-1.7634,-1.7676,-1.7687,-1.7695,-1.7694,-1.7702,-1.7701,-1.7701,-1.7715,-1.7715,-1.7715,-1.7715,0,-1.7131,-1.716,-1.7222,-1.7246,-1.7279,-1.7323,-1.7354,-1.7385,-1.7425,-1.7455,-1.7489,-1.7516,-1.7565,-1.7597,-1.7628,-1.7663,-1.7673,-1.7691,-1.7699,-1.7688,-1.7686,-1.7703,-1.7703,-1.7715,-1.7715,-1.7715,-1.7715,0,-1.7112,-1.7155,-1.7199,-1.7259,-1.7274,-1.7296,-1.7347,-1.737,-1.7403,-1.744,-1.7451,-1.7502,-1.7542,-1.7583,-1.7637,-1.7657,-1.7691,-1.7702,-1.7676,-1.7681,-1.7686,-1.7685,-1.7697,-1.7701,-1.7711,-1.7711,-1.7711,0,-1.7113,-1.7136,-1.7198,-1.7221,-1.7249,-1.7285,-1.7311,-1.7355,-1.7381,-1.7434,-1.7451,-1.7494,-1.753,-1.7592,-1.7633,-1.7674,-1.7686,-1.7687,-1.7693,-1.7681,-1.7687,-1.7685,-1.7687,-1.7686,-1.7685,-1.7685,-1.7685,0,-1.711,-1.713,-1.7168,-1.7212,-1.7243,-1.728,-1.7319,-1.7335,-1.7386,-1.7413,-1.7455,-1.7483,-1.7538,-1.758,-1.7626,-1.7654,-1.7678,-1.7683,-1.7687,-1.7677,-1.7661,-1.767,-1.7672,-1.7683,-1.7683,-1.7683,-1.7683,-1.7683,-1.7102,-1.7124,-1.7171,-1.7211,-1.7245,-1.7279,-1.7305,-1.734,-1.7376,-1.7425,-1.7448,-1.7489,-1.7533,-1.7598,-1.7625,-1.7658,-1.7665,-1.767,-1.7672,-1.7673,-1.767,-1.7655,-1.7666,-1.7666,-1.7666,-1.7667,-1.7667,0,-1.7101,-1.7133,-1.717,-1.7222,-1.7254,-1.7274,-1.7317,-1.7341,-1.7378,-1.7417,-1.7452,-1.75,-1.754,-1.7584,-1.7627,-1.7644,-1.7656,-1.7654,-1.7653,-1.7659,-1.7662,-1.7654,-1.7644,-1.7644,-1.7644,-1.7644,-1.7644,-1.7644,-1.7104,-1.7143,-1.7168,-1.7222,-1.7254,-1.7296,-1.7319,-1.735,-1.7382,-1.7434,-1.7468,-1.7496,-1.7537,-1.7583,-1.7621,-1.7633,-1.7647,-1.7642,-1.7656,-1.7658,-1.7659,-1.7661,-1.7654,-1.7644,-1.7644,-1.7652,-1.7652,-1.7652]},{"header":{"parameterUnit":"m.s-1","parameterCategory":1,"la1":30.2991,"la2":30.254,"lo1":-89.0895,"lo2":-89.0444,"dy":0.0017,"dx":0.0017,"nx":28,"ny":28,"refTime":"2024-06-29T03:00:00:Z","depth":0,"parameterNumber":3,"parameterNumberName":"V-component_of_WINDS"},"data":[0,0,0,0,0,0,0,0,0,0,0,0,0,0,0,0,0,0,0,0,0,0,0,0,0,0,0,0,0,0,0,0,0,0,0,0,0,0,0,0,0,0,0,0,0,0,0,0,0,0,0,0,0,0,0,0,0,0,4.311,4.3111,0,4.3202,4.3203,4.3204,4.3246,4.3246,4.3246,4.3246,4.3339,4.3342,4.3344,0,0,0,0,0,0,0,0,0,0,0,0,0,4.2969,4.2972,4.311,4.3111,4.3112,4.3202,4.3203,4.3204,4.3246,4.3246,4.3246,4.3246,4.3338,4.3341,4.3345,0,0,0,0,0,0,0,0,0,0,0,0,0,4.3043,4.2972,4.311,4.3144,4.3148,4.3202,4.3203,4.3205,4.3246,4.3246,4.3246,4.3246,4.3337,4.3341,4.3345,4.3371,0,0,4.3357,4.3358,0,0,0,0,0,0,0,0,4.3038,4.3048,4.3138,4.3142,4.3146,4.3213,4.3188,4.326,4.3246,4.3209,4.3246,4.3246,4.3297,4.3304,4.3322,4.3375,4.3379,4.3357,4.3359,4.3361,4.3362,0,0,0,0,0,0,0,4.3033,4.3044,4.3146,4.3139,4.3144,4.3154,4.3165,4.3202,4.3253,4.3212,4.3216,4.3226,4.3299,4.3318,4.3324,4.3381,4.3357,4.336,4.3363,4.3364,4.346,4.346,0,0,0,0,0,0,4.3023,4.3039,4.3143,4.3149,4.3091,4.3157,4.3169,4.3191,4.3252,4.3262,4.3226,4.3228,4.3312,4.332,4.3328,4.3362,4.3361,4.3365,4.3367,4.346,4.346,4.346,0,0,0,0,0,0,4.302,4.3032,4.314,4.3095,4.311,4.316,4.3185,4.3193,4.3212,4.3263,4.3272,4.3236,4.3312,4.3322,4.336,4.3366,4.3366,4.337,4.346,4.346,4.346,4.3432,0,0,0,0,0,0,4.3015,4.303,4.3041,4.3095,4.3112,4.3171,4.3185,4.3195,4.3219,4.3222,4.3274,4.3283,4.3312,4.3354,4.3364,4.3372,4.3373,4.3459,4.346,4.346,4.3432,4.3431,4.343,0,0,0,0,0,4.301,4.3029,4.3041,4.3054,4.3126,4.3171,4.318,4.3215,4.3219,4.323,4.3262,4.3281,4.3364,4.3358,4.3369,4.3378,4.3459,4.346,4.346,4.3433,4.3431,4.343,0,0,0,0,0,0,4.2974,4.3037,4.3051,4.3088,4.3124,4.3178,4.3193,4.3212,4.3247,4.3248,4.3289,4.33,4.3334,4.336,4.3352,4.3406,4.3413,4.3416,4.3388,4.3387,4.3386,4.338,4.3376,0,0,0,0,0,4.297,4.3001,4.3054,4.3082,4.3099,4.3143,4.3163,4.3187,4.3225,4.324,4.3276,4.3312,4.3347,4.3368,4.3403,4.3436,4.3448,4.3448,4.3446,4.3445,4.3447,4.3467,4.3468,4.3462,4.3462,4.3462,0,0,4.2963,4.3001,4.3018,4.3075,4.3106,4.3137,4.3155,4.3187,4.3211,4.3245,4.3283,4.331,4.3354,4.3389,4.3407,4.3412,4.3451,4.3446,4.3445,4.3448,4.3468,4.3468,4.3469,4.3463,4.3463,4.3463,0,0,4.2965,4.2997,4.3024,4.3054,4.31,4.3129,4.3135,4.3186,4.3206,4.3245,4.3271,4.3299,4.3357,4.3387,4.341,4.3424,4.3442,4.3434,4.3428,4.3447,4.3447,4.3448,4.3453,4.3454,4.3435,4.3435,4.3435,0,4.295,4.2999,4.3035,4.3066,4.309,4.3123,4.315,4.3177,4.3232,4.3248,4.3252,4.3326,4.3358,4.3401,4.3404,4.3421,4.343,4.3428,4.3444,4.3445,4.3446,4.3451,4.3453,4.3434,4.3434,4.3434,4.3435,0,4.2978,4.3011,4.3027,4.3079,4.3105,4.3134,4.3174,4.3196,4.3217,4.3245,4.3284,4.3323,4.3365,4.3377,4.3398,4.3424,4.3425,4.3436,4.3444,4.3445,4.345,4.3453,4.3432,4.3433,4.3433,4.3433,0,0,4.2961,4.3033,4.3038,4.3062,4.3115,4.3141,4.3171,4.3213,4.3231,4.3268,4.3294,4.3342,4.3353,4.3379,4.3403,4.3419,4.3428,4.3429,4.343,4.3427,4.3459,4.3451,4.3453,4.344,4.3441,4.3441,4.3456,0,4.2971,4.3027,4.306,4.3102,4.3133,4.3164,4.319,4.3225,4.3252,4.3282,4.3312,4.3346,4.3357,4.3373,4.3391,4.3423,4.3435,4.3422,4.3465,4.3466,4.3454,4.3456,4.3447,4.3459,4.3458,4.3458,4.3459,0,4.2991,4.3027,4.3072,4.3121,4.3136,4.3158,4.32,4.3228,4.3268,4.3287,4.3316,4.334,4.3372,4.3377,4.3423,4.3414,4.3433,4.3451,4.3453,4.3458,4.3463,4.3462,4.3463,4.3465,4.3463,4.3462,4.3462,0,4.2974,4.3034,4.3069,4.3088,4.3147,4.3162,4.3187,4.3227,4.3251,4.3287,4.3302,4.3341,4.3363,4.3392,4.3426,4.3427,4.3469,4.3476,4.3485,4.3484,4.3493,4.3492,4.3498,4.3504,4.3504,4.3504,4.3504,0,4.2983,4.3009,4.3062,4.3083,4.3114,4.3151,4.318,4.3208,4.3243,4.3271,4.33,4.3324,4.3368,4.3398,4.3424,4.3458,4.3468,4.3484,4.3491,4.3482,4.348,4.3495,4.3495,4.3505,4.3505,4.3505,4.3505,0,4.297,4.3006,4.3046,4.3098,4.3112,4.3132,4.3176,4.3198,4.3227,4.3261,4.3271,4.3315,4.3352,4.3389,4.3439,4.3457,4.349,4.3499,4.3477,4.3481,4.3488,4.3487,4.3504,4.3509,4.3511,4.3511,4.3511,0,4.2973,4.2994,4.3048,4.3069,4.3093,4.3125,4.3149,4.3187,4.321,4.3258,4.3274,4.3313,4.3346,4.3404,4.3441,4.3479,4.349,4.3493,4.3495,4.3486,4.349,4.3489,4.3491,4.3492,4.3492,4.3492,4.3491,0,4.2975,4.2992,4.3025,4.3065,4.3093,4.3126,4.316,4.3175,4.3219,4.3244,4.3282,4.3308,4.3359,4.3397,4.344,4.3465,4.3486,4.349,4.3495,4.3486,4.3472,4.348,4.3474,4.349,4.349,4.349,4.349,4.349,4.2971,4.2991,4.3032,4.3068,4.3098,4.3129,4.3152,4.3183,4.3216,4.326,4.328,4.3319,4.3359,4.3418,4.3443,4.3474,4.3479,4.3485,4.3487,4.3488,4.3486,4.3467,4.3482,4.3482,4.3482,4.3482,4.3482,0,4.2975,4.3003,4.3035,4.3082,4.3111,4.3127,4.3166,4.3188,4.3222,4.3257,4.3289,4.3333,4.3371,4.3411,4.345,4.3467,4.3478,4.3477,4.3476,4.3482,4.3479,4.3471,4.3468,4.3468,4.3468,4.3468,4.3468,4.3468,4.298,4.3015,4.3037,4.3087,4.3115,4.3153,4.3173,4.3202,4.3231,4.3279,4.331,4.3335,4.3373,4.3416,4.3451,4.3461,4.3475,4.3471,4.3485,4.3481,4.3482,4.3483,4.3476,4.3474,4.3474,4.3486,4.3486,4.3486]}]]